Regional Weather Roundup
Issued by NWS

Home | Current Version | Previous Version | Text Only | Print | Product List | Glossary Off
Versions: 1 2 3 4 5 6 7 8 9 10 11 12 13 14 15 16 17 18 19 20 21 22 23 24 25 26 27 28 29 30 31 32 33 34 35 36 37 38 39 40 41 42 43 44 45 46 47 48 49 50

000
ASUS43 KMKX 070259
RWRWI

WISCONSIN REGIONAL WEATHER ROUNDUP
NATIONAL WEATHER SERVICE MILWAUKEE/SULLIVAN WI
900 PM CST SAT FEB 06 2016

NOTE: "FAIR" INDICATES FEW OR NO CLOUDS BELOW 12,000 FEET WITH NO
SIGNIFICANT WEATHER AND/OR OBSTRUCTIONS TO VISIBILITY.

WIZ001-002-006>008-014>016-023>028-070400-
NORTHWEST WISCONSIN

CITY           SKY/WX    TMP DP  RH WIND       PRES   REMARKS
SUPERIOR ARPT  LGT SNOW  34  27  76 SW10G16   29.73F WCI  26
ASHLAND        CLOUDY    34  25  69 S10       29.75F WCI  26
HAYWARD        CLOUDY    32  23  69 S20G28    29.78S WCI  20
SIREN          FLURRIES  33  27  77 SW13      29.77F WCI  24
CUMBERLAND     CLOUDY    32  25  74 S14       29.81F WCI  22
RICE LAKE      CLOUDY    31  25  80 S12       29.85S WCI  22
CHETEK         CLOUDY    31  25  78 S12       29.85R WCI  22
LADYSMITH      CLOUDY    32  25  75 S10G17    29.85F WCI  23
EAU CLAIRE     NOT AVBL
MENOMONIE      CLOUDY    32  26  77 S13G22    29.88R WCI  22
NEW RICHMOND   CLOUDY    32  26  80 S16G22    29.82F WCI  21
OSCEOLA        MIX PCPN  33  28  83 S13       29.84F WCI  24
$$

WIZ003>005-009-010-017-018-070400-
NORTH CENTRAL WISCONSIN

CITY           SKY/WX    TMP DP  RH WIND       PRES   REMARKS
MANITOWISH WTR CLOUDY    30  22  73 S8        29.80F WCI  22
ARBOR VITAE    CLOUDY    32  24  72 S10       29.83F WCI  23
WOODRUFF       CLOUDY    32  24  72 S10       29.83F WCI  23
RHINELANDER    CLOUDY    30  21  69 SW14      29.85F WCI  19
EAGLE RIVER    CLOUDY    30  21  68 S7        29.83F WCI  23
LAND O LAKES   CLOUDY    30  22  72 S7        29.83F WCI  23
PHILLIPS       CLOUDY    30  23  73 S8        29.81F WCI  23
TOMAHAWK       CLOUDY    29  22  75 S6        29.88S WCI  23
MEDFORD        CLOUDY    29  24  81 S14       29.86F WCI  18
MERRILL        CLOUDY    30  23  74 SW7       29.90F WCI  23
$$

WIZ029-030-035-036-043>047-070400-
CENTRAL WISCONSIN

CITY           SKY/WX    TMP DP  RH WIND       PRES   REMARKS
WAUSAU         CLOUDY    32  23  69 S15       29.89F WCI  22
MOSINEE        PTCLDY    28  25  86 S13       29.92F WCI  18
MARSHFIELD     CLOUDY    31  21  66 S13       29.89F WCI  21
STEVENS POINT  CLOUDY    28  23  81 S12       29.94F WCI  18
WAUPACA        CLOUDY    32  26  77 S9        29.97F WCI  24
WAUTOMA        NOT AVBL
WISC RAPIDS    CLOUDY    30  24  78 SW13      29.96F WCI  20
CAMP DOUGLAS   NOT AVBL
$$

WIZ011>013-019>022-031-037>040-048>050-070400-
NORTHEAST WISCONSIN

CITY           SKY/WX    TMP DP  RH WIND       PRES   REMARKS
ANTIGO         CLOUDY    28  24  84 S13       29.90F WCI  17
SHAWANO        CLOUDY    32  26  77 S6        29.95F WCI  27
OCONTO         CLOUDY    30  26  85 S6        29.97F WCI  24
STURGEON BAY   CLOUDY    28  21  74 S12       29.99F WCI  18
GREEN BAY      MOCLDY    30  25  81 S13       29.98F WCI  20
MANITOWOC      NOT AVBL
APPLETON       CLOUDY    28  23  80 S12       29.97F WCI  18
CLINTONVILLE   MOCLDY    32  25  74 S9        29.96F WCI  24
OSHKOSH        CLOUDY    28  23  81 S12       29.99F WCI  18
$$

WIZ032>034-041-042-053>061-070400-
SOUTHWEST WISCONSIN

CITY           SKY/WX    TMP DP  RH WIND       PRES   REMARKS
LA CROSSE      CLOUDY    30  25  81 S13       29.94F WCI  20
SPARTA         CLOUDY    30  26  84 S6        29.97F WCI  24
VIROQUA        CLOUDY    28  27  94 S12       29.96F WCI  18
BOSCOBEL       CLOUDY    30  28  92 SW5       30.02F WCI  25
PRAIRIE DU CHI MOCLDY    32  27  81 S5        30.02F WCI  27
PLATTEVILLE    PTCLDY    27  26  96 SE7       30.01F WCI  19
$$

WIZ056-057-062-063-064-067-068-070400-
SOUTH CENTRAL WISCONSIN

CITY           SKY/WX    TMP DP  RH WIND       PRES   REMARKS
REEDSBURG      CLOUDY    28  26  89 S7        29.99F WCI  21
BARABOO/DELLS  CLOUDY    29  25  84 SW9       29.99F WCI  21
LONE ROCK      CLOUDY    30  25  81 CALM      30.02F
MINERAL POINT  PTCLDY    30  28  93 S8        30.00F FOG     WCI  23
MADISON        CLOUDY    29  25  85 S10       30.01F WCI  20
MIDDLETON      CLOUDY    31  26  84 S6        30.02F WCI  25
WATERTOWN      PTCLDY    29  29 100 SW6       30.03F WCI  23
MONROE         PTCLDY    28  28 100 S9        30.03F WCI  20
JANESVILLE     CLEAR     30  28  93 S3        30.06F
$$

WIZ051-052-058>065-066-070>072-070400-
SOUTHEAST WISCONSIN

CITY           SKY/WX    TMP DP  RH WIND       PRES   REMARKS
MILWAUKEE      PTCLDY    31  26  82 S7        30.05F WCI  24
WAUKESHA       PTCLDY    28  27  93 S3        30.05F
MILWAUKEE/TIMM CLEAR     28  25  86 S5        30.06F WCI  23
RACINE         PTCLDY    30  25  81 S7        30.08F WCI  23
BURLINGTON     CLEAR     28  25  87 SW7       30.07F WCI  21
KENOSHA        CLEAR     32  26  78 SW6       30.07F WCI  26
FOND DU LAC    PTCLDY    29  25  85 SW14      30.00F WCI  18
SHEBOYGAN      CLOUDY    29  24  82 S7        30.02F WCI  22
WEST BEND      PTCLDY    30  27  86 SW6       30.03F WCI  24
JUNEAU         PTCLDY    28  25  90 S8        30.04F WCI  20
$$

LSZ147-162-070400-
LAKE SUPERIOR

STATION/POSITION TIME  TEMP    WIND        PRES    WAVE
                       AIR SEA DIR/SP/G            HT/PER
                 (UTC) (F)     (DEG/KT/KT) (MB)    (FT/S)
DEVILS ISLAND    0200   32     200/  6/  8 1008.9F
PORT WING        0100          200/ 10/ 24   N/A
SAXON HARBOR     0220   35                 1007.8F
$$

LMZ867-665-643>646-070400-
LAKE MICHIGAN

STATION/POSITION TIME  TEMP    WIND        PRES    WAVE
                       AIR SEA DIR/SP/G            HT/PER
                 (UTC) (F)     (DEG/KT/KT) (MB)    (FT/S)
CHAMBERS ISLAND  0200   28     170/  6/ 13 1015.9F
ALGOMA LAKESHORE 0111          220/ 12/ 15   N/A
KEWAUNEE LAKESHO 0200   29     200/ 10/ 12 1016.1F
SHEBOYGAN LAKESH 0200   31     200/ 10/ 12 1018.7F
PORT WASHINGTON  0240   31     210/  5/  9 1018.3F
MILWAUKEE LAKESH 0210   32     200/  6/  7   N/A
KENOSHA   LAKESH 0200   35     220/  5/  6 1019.3F
$$

TC  - TEMPERATURE IN CELSIUS
VSB - VISIBILITY IN STATUTE MILES
WCI - WIND CHILL INDEX
HX  - HEAT INDEX





USA.gov is the U.S. government's official web portal to all federal, state and local government web resources and services.